Regional Weather Roundup
Issued by NWS

Home | Current Version | Previous Version | Text Only | Print | Product List | Glossary On
Versions: 1 2 3 4 5 6 7 8 9 10 11 12 13 14 15 16 17 18 19 20 21 22 23 24 25 26 27 28 29 30 31 32 33 34 35 36 37 38 39 40 41 42 43 44 45 46 47 48 49 50
000
ASUS43 KOAX 232302
RWRNE

WEATHER ROUNDUP FOR NEBRASKA
NATIONAL WEATHER SERVICE OMAHA NE
600 PM CDT TUE SEP 23 2014

NOTES: SATELLITE DATA IS BEING USED TO AUGMENT CLOUD COVER ABOVE
       12000 FEET.
       "FAIR" INDICATES FEW OR NO CLOUDS BELOW 12,000 FEET WITH NO
       SIGNIFICANT WEATHER AND/OR OBSTRUCTIONS TO VISIBILITY.

  * THESE STATIONS DO NOT REPORT WEATHER SUCH AS RAIN...SNOW OR FOG.

NEZ001>004-019>022-054>056-240000-
NEBRASKA PANHANDLE

CITY           SKY/WX    TMP DP  RH WIND       PRES   REMARKS
SCOTTSBLUFF    MOSUNNY   83  44  25 NW7       30.00S
ALLIANCE       PTSUNNY   81  48  31 N13       29.98R
CHADRON        CLOUDY    77  52  41 N3        29.95S
KIMBALL        PTSUNNY   76  43  30 N14       30.06R
SIDNEY         MOSUNNY   78  42  27 NW10      30.03S
$$

NEZ057>060-069>072-079>082-240000-
SOUTHWEST NEBRASKA

CITY           SKY/WX    TMP DP  RH WIND       PRES   REMARKS
NORTH PLATTE   MOSUNNY   82  53  36 SW7       29.91F
IMPERIAL       MOSUNNY   84  41  21 W15       29.96S
LEXINGTON      MOSUNNY   77  63  61 SE13      29.95F
MCCOOK         MOSUNNY   83  57  41 S5        29.94F
OGALLALA       SUNNY     85  49  27 NW9       29.95S
$$

NEZ005>010-023>029-035>040-094-240000-
NORTH CENTRAL NEBRASKA

CITY           SKY/WX    TMP DP  RH WIND       PRES   REMARKS
VALENTINE      MOSUNNY   77  57  50 SE3       29.90S
AINSWORTH      PTSUNNY   70  63  79 E5        29.91S
BROKEN BOW     MOSUNNY   75  60  59 S16G25    29.93F
O`NEILL        CLOUDY    66  60  79 SE14G20   29.96F
ORD            MOSUNNY   69  58  67 SE12      29.96S
THEDFORD       RAIN      74  56  52 NW7       29.93F
$$

NEZ041-046>049-061>064-073>077-083>087-240000-
SOUTH CENTRAL NEBRASKA

CITY           SKY/WX    TMP DP  RH WIND       PRES   REMARKS
GRAND ISLAND   CLOUDY    67  57  70 SE13      30.02R
AURORA         CLOUDY    66  55  68 S17       30.02S
HASTINGS       PTSUNNY   68  55  63 SE16      30.01S
HEBRON         CLOUDY    65  57  74 SE17      30.04F
HOLDREGE       SUNNY     74  57  55 SE14G23   29.97F
KEARNEY *      MOSUNNY   72  57  60 SE13      29.99F
YORK           PTSUNNY   64  57  77 S18G25    30.04S
$$

NEZ011>018-030>034-042>045-240000-
NORTHEAST NEBRASKA

CITY           SKY/WX    TMP DP  RH WIND       PRES   REMARKS
NORFOLK        CLOUDY    65  57  75 SE20G26   30.03R
ALBION         CLOUDY    65  55  69 S16G23    30.01S
BLAIR          CLOUDY    67  49  52 SE16G23   30.09R
COLUMBUS *     CLOUDY    63  55  77 S12       30.06R
FREMONT        CLOUDY    65  51  60 S15G22    30.08S
TEKAMAH        CLOUDY    68  56  65 S18G25    30.07R
WAYNE          CLOUDY    66  56  71 S14G25    30.05R
$$

NEZ050>053-065>068-078-088>093-240000-
SOUTHEAST NEBRASKA

CITY           SKY/WX    TMP DP  RH WIND       PRES   REMARKS
LINCOLN        CLOUDY    62  52  69 SE16      30.09S
OMAHA EPPLEY   PTSUNNY   68  49  50 S28G33    30.10R
BEATRICE       CLOUDY    60  56  87 SE13G18   30.09S
FALLS CITY     LGT RAIN  65  59  81 CALM      30.15R
NEBRASKA CITY  RAIN      60  55  82 S6        30.13F
PLATTSMOUTH    PTSUNNY   65  53  64 S15       30.12R
$$

NEZ044-045-051>053-067-240000-
OMAHA AREA

CITY           SKY/WX    TMP DP  RH WIND       PRES   REMARKS
OMAHA EPPLEY   PTSUNNY   68  49  50 S28G33    30.10R
BLAIR          CLOUDY    67  49  52 SE16G23   30.09R
FREMONT        CLOUDY    65  51  60 S15G22    30.08S
MILLARD        CLOUDY    67  53  61 S15G25    30.10R
OFFUTT AFB     PTSUNNY   67  57  69 S18G26    30.11R
PLATTSMOUTH    PTSUNNY   65  53  64 S15       30.12R
WAHOO          CLOUDY    62  51  67 S17G23    30.09S
$$



USA.gov is the U.S. government's official web portal to all federal, state and local government web resources and services.